TimeCDT,TemperatureF,Dew PointF,Humidity,Sea Level PressureIn,VisibilityMPH,Wind Direction,Wind SpeedMPH,Gust SpeedMPH,PrecipitationIn,Events,Conditions,WindDirDegrees,DateUTC
12:52 AM,53.1,48.0,83,30.32,10.0,SE,4.6,-,N/A,,Clear,140,2013-09-17 05:52:00
1:52 AM,53.1,48.0,83,30.32,10.0,ESE,6.9,-,N/A,,Clear,120,2013-09-17 06:52:00
2:52 AM,52.0,48.0,86,30.31,10.0,ESE,4.6,-,N/A,,Clear,110,2013-09-17 07:52:00
3:52 AM,51.1,46.9,86,30.29,10.0,East,4.6,-,N/A,,Clear,100,2013-09-17 08:52:00
4:52 AM,50.0,46.9,89,30.28,10.0,East,4.6,-,N/A,,Clear,90,2013-09-17 09:52:00
5:52 AM,50.0,46.9,89,30.28,10.0,East,3.5,-,N/A,,Clear,90,2013-09-17 10:52:00
6:52 AM,51.1,46.9,86,30.28,10.0,East,5.8,-,N/A,,Scattered Clouds,80,2013-09-17 11:52:00
7:52 AM,51.1,48.0,89,30.28,10.0,East,5.8,-,N/A,,Clear,100,2013-09-17 12:52:00
8:52 AM,54.0,50.0,86,30.28,10.0,ESE,6.9,-,N/A,,Mostly Cloudy,120,2013-09-17 13:52:00
9:52 AM,57.9,51.1,78,30.25,10.0,ESE,9.2,-,N/A,,Partly Cloudy,110,2013-09-17 14:52:00
10:52 AM,57.9,53.1,84,30.25,10.0,SE,8.1,-,0.00,Rain,Light Rain,130,2013-09-17 15:52:00
11:52 AM,61.0,53.1,75,30.23,10.0,ESE,11.5,-,0.00,,Overcast,120,2013-09-17 16:52:00
12:52 PM,64.9,54.0,68,30.21,10.0,SE,9.2,-,N/A,,Overcast,130,2013-09-17 17:52:00
1:52 PM,64.9,55.0,70,30.18,10.0,SE,9.2,-,N/A,,Overcast,130,2013-09-17 18:52:00
2:52 PM,66.0,57.9,75,30.15,10.0,ESE,6.9,-,0.01,,Overcast,120,2013-09-17 19:52:00
3:52 PM,68.0,57.0,68,30.12,10.0,SSE,8.1,-,N/A,,Overcast,150,2013-09-17 20:52:00
4:03 PM,68.0,57.2,68,30.12,10.0,SSE,12.7,-,N/A,,Overcast,150,2013-09-17 21:03:00
4:17 PM,68.0,57.2,68,30.11,10.0,SE,10.4,-,N/A,,Overcast,130,2013-09-17 21:17:00
4:52 PM,68.0,57.9,70,30.11,10.0,SSE,10.4,-,N/A,,Overcast,150,2013-09-17 21:52:00
5:52 PM,66.9,59.0,76,30.10,10.0,SE,6.9,-,N/A,,Overcast,130,2013-09-17 22:52:00
6:52 PM,66.9,60.1,79,30.08,10.0,SSE,8.1,-,N/A,,Overcast,150,2013-09-17 23:52:00
7:52 PM,66.9,60.1,79,30.07,10.0,SSE,6.9,-,N/A,,Overcast,150,2013-09-18 00:52:00
8:52 PM,66.0,59.0,78,30.07,10.0,SE,6.9,-,N/A,,Overcast,130,2013-09-18 01:52:00
9:52 PM,66.0,59.0,78,30.07,10.0,SSE,9.2,-,N/A,,Overcast,150,2013-09-18 02:52:00
10:52 PM,66.0,59.0,78,30.07,10.0,SSE,8.1,-,N/A,,Overcast,160,2013-09-18 03:52:00
11:52 PM,66.0,59.0,78,30.06,10.0,SSE,10.4,-,N/A,,Overcast,160,2013-09-18 04:52:00